EW8719 Richmond Hill GA US current weather conditions

sailwx.info

Wind from 232

Air temperature 11.7° C
Dewpoint 9.7° C

Last reported at 2019-Dec-09 04:01 UTC.
Time now 2019-Dec-09 04:28 UTC

Location: N 31°50' W 081°16'.
View on Google Maps.

See reports from other nearby stations

  
Tides and Currents Weather Stations Pressure Air Temp Water Temp Dewpoint Dewpoint Depression Visibility Wind Speed Wind Dir Waves Ship Positions
date/time (UTC)wind fromknots sea level pressurealtimeterstation pressurevisibilityair tempwater tempwave heightnotes
2019-Dec-09 04:01 232 11.7
2019-Dec-09 03:45 232 11.7
2019-Dec-09 03:30 232 12.2
2019-Dec-09 03:15 232 12.2
2019-Dec-09 03:00 232 12.8
2019-Dec-09 02:45 232 12.8
2019-Dec-09 02:30 232 12.8
2019-Dec-09 02:15 232 12.8
2019-Dec-09 02:00 232 12.8
2019-Dec-09 01:45 232 12.8
2019-Dec-09 01:30 232 12.8
2019-Dec-09 01:15 232 12.8
2019-Dec-09 01:00 232 12.8
2019-Dec-09 00:45 232 12.8
2019-Dec-09 00:30 232 12.8
2019-Dec-09 00:15 232 12.8
2019-Dec-09 00:00 232 12.8
2019-Dec-08 23:45 232 13.3
2019-Dec-08 23:30 232 13.3
2019-Dec-08 23:15 232 13.3
2019-Dec-08 23:00 232 13.3
2019-Dec-08 22:45 232 13.9
2019-Dec-08 22:30 232 14.4
2019-Dec-08 22:15 232 14.4
2019-Dec-08 22:00 232 15.0
2019-Dec-08 21:45 232 15.0
2019-Dec-08 21:30 228 15.6
2019-Dec-08 21:15 192 0 gusting 1 15.6
2019-Dec-08 21:01 267 16.1
2019-Dec-08 20:46 267 0 gusting 2 16.1
2019-Dec-08 20:31 017 16.1
2019-Dec-08 20:16 030 0 gusting 1 16.7
2019-Dec-08 20:03 030 0 gusting 3 16.7
2019-Dec-08 19:48 057 1 gusting 4 17.2
2019-Dec-08 19:31 338 0 gusting 4 17.2
2019-Dec-08 19:16 030 0 gusting 4 17.2
2019-Dec-08 19:01 294 0 gusting 3 17.2
2019-Dec-08 18:46 225 0 gusting 2 17.2
2019-Dec-08 18:31 276 0 gusting 2 16.7
2019-Dec-08 18:16 034 1 gusting 5 16.7
2019-Dec-08 18:01 036 1 gusting 4 16.7
2019-Dec-08 17:47 171 16.7
2019-Dec-08 17:31 056 0 gusting 4 16.1
2019-Dec-08 17:16 060 0 gusting 4 16.1
2019-Dec-08 17:01 052 0 gusting 6 15.6
2019-Dec-08 16:46 230 0 gusting 3 15.0
2019-Dec-08 16:31 348 0 gusting 3 14.4
2019-Dec-08 16:15 065 0 gusting 5 13.9
2019-Dec-08 16:00 055 1 gusting 7 13.3
2019-Dec-08 15:45 346 0 gusting 7 12.8
2019-Dec-08 15:30 076 0 gusting 4 12.2
2019-Dec-08 15:15 022 0 gusting 5 11.7
2019-Dec-08 15:00 343 0 gusting 3 11.1
2019-Dec-08 14:45 345 0 gusting 4 10.6
2019-Dec-08 14:30 061 0 gusting 5 10.0
2019-Dec-08 14:15 355 1 gusting 3 9.4
2019-Dec-08 14:00 057 0 gusting 3 9.4
2019-Dec-08 13:45 099 8.9
2019-Dec-08 13:30 343 1 gusting 3 8.9
2019-Dec-08 13:15 005 0 gusting 4 8.9
2019-Dec-08 13:02 340 8.3
2019-Dec-08 12:47 038 0 gusting 3 8.3
2019-Dec-08 12:32 019 8.3
2019-Dec-08 12:16 019 8.9
2019-Dec-08 07:30 005 11.1
2019-Dec-08 07:15 036 0 gusting 2 11.1
2019-Dec-08 07:00 036 11.1
2019-Dec-08 06:45 091 0 gusting 1 10.6
2019-Dec-08 06:30 091 10.6
2019-Dec-08 06:15 091 10.6
2019-Dec-08 05:45 091 0 gusting 1 10.6
2019-Dec-08 05:30 091 10.6
2019-Dec-08 05:15 091 10.6
2019-Dec-08 05:00 091 10.6
2019-Dec-08 04:45 091 10.6
2019-Dec-08 04:30 091 10.6
2019-Dec-08 04:15 091 10.6
2019-Dec-08 04:03 091 10.6
2019-Dec-08 03:46 091 10.6
2019-Dec-08 03:31 091 10.6
2019-Dec-08 03:17 091 10.6
2019-Dec-08 03:01 091 10.6
2019-Dec-08 02:47 091 10.6
2019-Dec-08 02:32 091 11.1
2019-Dec-08 02:17 091 11.1
2019-Dec-08 02:01 091 11.1
2019-Dec-08 01:46 091 11.1
2019-Dec-08 01:32 091 11.1
2019-Dec-08 01:16 091 11.1
2019-Dec-08 01:01 091 11.1
2019-Dec-08 00:46 091 11.1
2019-Dec-08 00:31 091 11.1
2019-Dec-08 00:16 091 11.1
2019-Dec-08 00:01 091 11.7
2019-Dec-07 23:46 091 11.7
2019-Dec-07 23:31 091 11.7
2019-Dec-07 23:16 091 12.2
2019-Dec-07 23:01 091 12.8
2019-Dec-07 22:46 091 13.9
2019-Dec-07 22:31 091 14.4
2019-Dec-07 22:15 091 15.6
2019-Dec-07 22:01 091 16.1
2019-Dec-07 21:45 091 16.7
2019-Dec-07 21:31 091 16.7
2019-Dec-07 21:16 163 16.7
2019-Dec-07 21:01 053 0 gusting 2 17.2
2019-Dec-07 20:46 053 0 gusting 2 17.8
2019-Dec-07 20:31 123 0 gusting 3 17.2
2019-Dec-07 20:16 330 17.2
2019-Dec-07 20:00 295 0 gusting 2 17.8
2019-Dec-07 19:45 282 0 gusting 4 18.3
2019-Dec-07 19:31 325 18.9
2019-Dec-07 19:15 027 0 gusting 2 18.3
2019-Dec-07 19:00 020 18.3
2019-Dec-07 18:45 017 18.3
2019-Dec-07 18:30 334 0 gusting 3 18.3
2019-Dec-07 18:16 056 0 gusting 2 18.9
2019-Dec-07 17:45 151 1 gusting 3 19.4
2019-Dec-07 17:31 355 0 gusting 2 18.9
2019-Dec-07 17:15 288 2 gusting 5 18.3
2019-Dec-07 17:00 023 0 gusting 4 18.3
2019-Dec-07 16:45 332 0 gusting 5 18.3
2019-Dec-07 16:30 078 1 gusting 4 17.8
2019-Dec-07 16:15 355 1 gusting 6 17.2
2019-Dec-07 16:00 057 0 gusting 3 16.7
2019-Dec-07 15:45 025 0 gusting 3 15.6
2019-Dec-07 15:32 334 14.4
2019-Dec-07 15:17 055 0 gusting 1 14.4
2019-Dec-07 15:02 055 13.9
2019-Dec-07 14:46 355 13.3
2019-Dec-07 14:31 355 13.3
2019-Dec-07 14:16 355 12.8
2019-Dec-07 14:01 339 12.2
2019-Dec-07 13:46 339 12.2
2019-Dec-07 13:32 339 11.7
2019-Dec-07 13:16 340 11.1
2019-Dec-07 13:00 334 11.1
2019-Dec-07 12:46 334 10.6
2019-Dec-07 12:31 334 10.6
2019-Dec-07 12:15 334 10.6
2019-Dec-07 12:01 334 10.6
2019-Dec-07 11:45 334 10.6
2019-Dec-07 11:30 334 10.6
2019-Dec-07 11:15 334 10.6
2019-Dec-07 11:00 334 10.6
2019-Dec-07 10:45 334 10.0
2019-Dec-07 10:30 334 10.0
2019-Dec-07 10:16 334 10.6
2019-Dec-07 10:00 334 10.6
2019-Dec-07 09:45 334 10.6
2019-Dec-07 09:30 334 10.6
2019-Dec-07 09:15 334 10.6
2019-Dec-07 09:00 334 10.6
2019-Dec-07 08:45 334 10.6
2019-Dec-07 08:30 334 10.6
2019-Dec-07 08:15 334 10.6
2019-Dec-07 08:00 334 10.6
2019-Dec-07 07:45 334 10.6
2019-Dec-07 07:30 334 10.6
2019-Dec-07 07:15 334 10.6
2019-Dec-07 07:00 334 10.6
2019-Dec-07 06:45 334 10.6
2019-Dec-07 06:30 334 10.6
2019-Dec-07 06:15 334 10.6
2019-Dec-07 06:00 334 10.6
2019-Dec-07 05:47 334 10.6
2019-Dec-07 05:33 334 10.6
2019-Dec-07 05:16 334 11.1
2019-Dec-07 05:01 334 11.1
2019-Dec-07 04:46 334 11.7
2019-Dec-07 04:31 334 11.7
2019-Dec-07 04:17 334 11.7
2019-Dec-07 04:01 334 11.7